| time (UTC) | temp F | wind direction | speed MPH | gust MPH | rain 1hr in | rain 24hr in | rain mn in | humidity % | barometer mb |
| 20260902171552 | 63 | 139 | 0.0 | 0.0 | 0.00 | 0.03 | 0.00 | 88 | 1020.4 |
| 20260902170041 | 62 | 86 | 0.0 | 0.0 | 0.00 | 0.03 | 0.00 | 87 | 1020.4 |
| 20260902164547 | 62 | 109 | 0.0 | 0.0 | 0.00 | 0.03 | 0.00 | 85 | 1020.7 |
| 20260902163043 | 62 | 244 | 0.0 | 0.0 | 0.00 | 0.03 | 0.00 | 85 | 1020.7 |
| 20260902161510 | 62 | 78 | 0.0 | 0.0 | 0.00 | 0.03 | 0.00 | 85 | 1020.7 |
| 20260902160116 | 61 | 232 | 0.0 | 0.0 | 0.00 | 0.03 | 0.00 | 87 | 1020.9 |
| 20260902154543 | 61 | 143 | 0.0 | 0.0 | 0.00 | 0.11 | 0.00 | 87 | 1021.0 |
| 20260902153044 | 61 | 117 | 0.0 | 0.0 | 0.00 | 0.11 | 0.00 | 89 | 1021.2 |
| 20260902151505 | 60 | 41 | 0.0 | 0.0 | 0.00 | 0.11 | 0.00 | 90 | 1021.3 |
| 20260902150053 | 60 | 83 | 0.0 | 0.0 | 0.00 | 0.11 | 0.00 | 89 | 1021.6 |
| 20260902144550 | 60 | 74 | 0.0 | 0.0 | 0.00 | 0.11 | 0.00 | 91 | 1021.6 |
| 20260902143027 | 59 | 208 | 0.0 | 0.0 | 0.00 | 0.11 | 0.00 | 91 | 1021.6 |
| 20260902141503 | 59 | 128 | 0.0 | 0.0 | 0.00 | 0.11 | 0.00 | 92 | 1021.3 |
| 20260902140047 | 59 | 134 | 0.0 | 0.0 | 0.00 | 0.11 | 0.00 | 93 | 1021.2 |
| 20260902134539 | 59 | 121 | 0.0 | 0.0 | 0.00 | 0.11 | 0.00 | 92 | 1021.3 |
| 20260902133005 | 59 | 121 | 0.0 | 0.0 | 0.00 | 0.11 | 0.00 | 92 | 1021.0 |
| 20260902131543 | 59 | 121 | 0.0 | 0.0 | 0.00 | 0.11 | 0.00 | 92 | 1020.7 |
| 20260902130045 | 59 | 85 | 0.0 | 0.0 | 0.00 | 0.11 | 0.00 | 92 | 1020.8 |
| 20260902124539 | 58 | 83 | 0.0 | 0.0 | 0.00 | 0.11 | 0.00 | 93 | 1020.8 |
| 20260902123022 | 58 | 83 | 0.0 | 0.0 | 0.00 | 0.11 | 0.00 | 95 | 1020.7 |
| 20260902121527 | 58 | 83 | 0.0 | 0.0 | 0.00 | 0.11 | 0.00 | 96 | 1020.7 |
| 20260902120049 | 58 | 88 | 0.0 | 0.0 | 0.00 | 0.11 | 0.00 | 97 | 1020.6 |
| 20260902114525 | 58 | 88 | 0.0 | 0.0 | 0.00 | 0.20 | 0.00 | 97 | 1020.6 |
| 20260902113008 | 57 | 88 | 0.0 | 0.0 | 0.00 | 0.20 | 0.00 | 97 | 1020.8 |
| 20260902111556 | 57 | 88 | 0.0 | 0.0 | 0.00 | 0.20 | 0.00 | 97 | 1021.0 |
| 20260902110052 | 57 | 88 | 0.0 | 0.0 | 0.00 | 0.20 | 0.00 | 97 | 1020.9 |
| 20260902104607 | 57 | 88 | 0.0 | 0.0 | 0.00 | 0.27 | 0.00 | 97 | 1020.6 |
| 20260902103010 | 57 | 88 | 0.0 | 0.0 | 0.00 | 0.27 | 0.00 | 97 | 1020.5 |
| 20260902101503 | 57 | 88 | 0.0 | 0.0 | 0.00 | 0.27 | 0.00 | 97 | 1020.5 |
| 20260902100133 | 57 | 88 | 0.0 | 0.0 | 0.00 | 0.27 | 0.00 | 97 | 1020.2 |
| 20260902094503 | 57 | 88 | 0.0 | 0.0 | 0.00 | 0.27 | 0.00 | 97 | 1020.0 |
| 20260902093100 | 57 | 88 | 0.0 | 0.0 | 0.00 | 0.27 | 0.00 | 97 | 1019.9 |
| 20260902091539 | 57 | 88 | 0.0 | 0.0 | 0.00 | 0.27 | 0.00 | 97 | 1019.7 |
| 20260902090005 | 57 | 88 | 0.0 | 0.0 | 0.00 | 0.27 | 0.00 | 97 | 1019.7 |
| 20260902084604 | 57 | 88 | 0.0 | 0.0 | 0.00 | 0.27 | 0.00 | 97 | 1019.3 |
| 20260902083039 | 57 | 88 | 0.0 | 0.0 | 0.00 | 0.27 | 0.00 | 97 | 1019.4 |
| 20260902081509 | 57 | 88 | 0.0 | 0.0 | 0.00 | 0.27 | 0.00 | 97 | 1019.3 |
| 20260902080027 | 57 | 88 | 0.0 | 0.0 | 0.00 | 0.27 | 0.00 | 97 | 1019.3 |
| 20260902074525 | 57 | 88 | 0.0 | 0.0 | 0.00 | 0.27 | 0.00 | 97 | 1019.6 |
| 20260902073013 | 57 | 88 | 0.0 | 0.0 | 0.00 | 0.27 | 0.00 | 97 | 1019.7 |
| 20260902071630 | 57 | 88 | 0.0 | 0.0 | 0.00 | 0.27 | 0.00 | 97 | 1019.5 |
| 20260902070105 | 57 | 88 | 0.0 | 0.0 | 0.00 | 0.27 | 0.00 | 97 | 1019.3 |
| 20260902064539 | 58 | 88 | 0.0 | 0.0 | 0.00 | 0.27 | 0.00 | 97 | 1019.4 |
| 20260902063007 | 58 | 88 | 0.0 | 0.0 | 0.00 | 0.27 | 0.00 | 97 | 1019.5 |
| 20260902061506 | 58 | 88 | 0.0 | 0.0 | 0.00 | 0.27 | 0.00 | 97 | 1019.3 |
| 20260902060001 | 58 | 88 | 0.0 | 0.0 | 0.00 | 0.27 | 0.00 | 97 | 1019.4 |
| 20260902054603 | 58 | 88 | 0.0 | 0.0 | 0.00 | 0.27 | 0.00 | 97 | 1019.2 |
| 20260902053005 | 59 | 88 | 0.0 | 0.0 | 0.00 | 0.27 | 0.00 | 98 | 1019.0 |
| 20260902051501 | 59 | 88 | 0.0 | 0.0 | 0.00 | 0.27 | 0.00 | 97 | 1019.0 |
| 20260902050059 | 59 | 88 | 0.0 | 0.0 | 0.00 | 0.27 | 0.00 | 98 | 1019.0 |
| 20260902044557 | 59 | 88 | 0.0 | 0.0 | 0.00 | 0.27 | 0.00 | 98 | 1018.9 |
| 20260902043047 | 59 | 88 | 0.0 | 0.0 | 0.00 | 0.27 | 0.00 | 98 | 1018.7 |
| 20260902041541 | 59 | 88 | 0.0 | 0.0 | 0.00 | 0.27 | 0.00 | 98 | 1018.4 |
| 20260902040039 | 59 | 88 | 0.0 | 0.0 | 0.00 | 0.27 | 0.00 | 98 | 1018.1 |
| 20260902034526 | 59 | 88 | 0.0 | 0.0 | 0.00 | 0.27 | 0.27 | 98 | 1017.8 |
| 20260902033006 | 59 | 88 | 0.0 | 0.0 | 0.00 | 0.27 | 0.27 | 98 | 1017.8 |
| 20260902031529 | 59 | 88 | 0.0 | 0.0 | 0.00 | 0.27 | 0.27 | 98 | 1017.9 |
| 20260902030104 | 59 | 88 | 0.0 | 0.0 | 0.00 | 0.27 | 0.27 | 98 | 1018.0 |
| 20260902024537 | 59 | 88 | 0.0 | 0.0 | 0.00 | 0.27 | 0.27 | 97 | 1017.9 |
| 20260902023029 | 59 | 88 | 0.0 | 0.0 | 0.00 | 0.27 | 0.27 | 97 | 1018.0 |
| 20260902021502 | 59 | 92 | 0.0 | 0.0 | 0.00 | 0.27 | 0.27 | 97 | 1018.2 |
| 20260902020145 | 60 | 92 | 0.0 | 0.0 | 0.00 | 0.27 | 0.27 | 97 | 1017.9 |
| 20260902014559 | 60 | 92 | 0.0 | 0.0 | 0.00 | 0.27 | 0.27 | 97 | 1017.9 |
| 20260902013040 | 60 | 92 | 0.0 | 0.0 | 0.00 | 0.27 | 0.27 | 97 | 1017.7 |
| 20260902011556 | 60 | 92 | 0.0 | 0.0 | 0.00 | 0.27 | 0.27 | 97 | 1017.6 |
| 20260902010058 | 60 | 92 | 0.0 | 0.0 | 0.00 | 0.27 | 0.27 | 97 | 1017.6 |
| 20260902004604 | 60 | 92 | 0.0 | 0.0 | 0.00 | 0.27 | 0.27 | 97 | 1017.5 |
| 20260902003054 | 60 | 92 | 0.0 | 0.0 | 0.00 | 0.27 | 0.27 | 97 | 1017.1 |
| 20260902001558 | 60 | 92 | 0.0 | 0.0 | 0.00 | 0.27 | 0.27 | 97 | 1017.0 |
| 20260902000046 | 61 | 94 | 0.0 | 0.0 | 0.00 | 0.27 | 0.27 | 97 | 1016.8 |
| 20260901234554 | 61 | 90 | 0.0 | 0.0 | 0.00 | 0.27 | 0.27 | 97 | 1016.6 |
| 20260901233034 | 61 | 90 | 0.0 | 0.0 | 0.00 | 0.27 | 0.27 | 97 | 1016.5 |
| 20260901231533 | 61 | 97 | 0.0 | 0.0 | 0.00 | 0.27 | 0.27 | 97 | 1016.6 |
| 20260901230047 | 61 | 97 | 0.0 | 0.0 | 0.00 | 0.27 | 0.27 | 97 | 1016.7 |
| 20260901224557 | 61 | 97 | 0.0 | 0.0 | 0.00 | 0.27 | 0.27 | 97 | 1016.5 |
| 20260901223046 | 61 | 136 | 0.0 | 0.0 | 0.00 | 0.27 | 0.27 | 97 | 1016.7 |
| 20260901221620 | 62 | 49 | 0.0 | 0.0 | 0.00 | 0.27 | 0.27 | 97 | 1016.5 |
| 20260901220052 | 62 | 49 | 0.0 | 0.0 | 0.00 | 0.27 | 0.27 | 97 | 1016.3 |
| 20260901214552 | 62 | 39 | 0.0 | 0.0 | 0.00 | 0.27 | 0.27 | 96 | 1016.2 |
| 20260901213044 | 63 | 76 | 0.0 | 0.0 | 0.00 | 0.27 | 0.27 | 97 | 1015.9 |
| 20260901211546 | 63 | 97 | 0.0 | 0.0 | 0.00 | 0.27 | 0.27 | 97 | 1015.8 |
| 20260901210025 | 63 | 97 | 0.0 | 0.0 | 0.00 | 0.27 | 0.27 | 96 | 1015.8 |
| 20260901204505 | 63 | 136 | 0.0 | 0.0 | 0.00 | 0.27 | 0.27 | 96 | 1015.8 |
| 20260901203106 | 63 | 136 | 0.0 | 0.0 | 0.00 | 0.27 | 0.27 | 96 | 1015.6 |
| 20260901201551 | 63 | 136 | 0.0 | 0.0 | 0.00 | 0.27 | 0.27 | 96 | 1015.7 |
| 20260901200103 | 63 | 136 | 0.0 | 0.0 | 0.00 | 0.27 | 0.27 | 96 | 1015.5 |
| 20260901194544 | 63 | 142 | 0.0 | 0.0 | 0.00 | 0.27 | 0.27 | 96 | 1015.5 |
| 20260901193104 | 63 | 187 | 0.0 | 0.0 | 0.00 | 0.27 | 0.27 | 97 | 1015.5 |
| 20260901191545 | 63 | 234 | 0.0 | 0.0 | 0.00 | 0.27 | 0.27 | 97 | 1015.4 |
| 20260901190041 | 62 | 236 | 0.0 | 0.0 | 0.01 | 0.27 | 0.27 | 97 | 1015.6 |
| 20260901184536 | 62 | 149 | 0.0 | 0.0 | 0.01 | 0.27 | 0.27 | 97 | 1015.7 |
| 20260901183030 | 62 | 104 | 0.0 | 0.0 | 0.02 | 0.27 | 0.27 | 97 | 1015.8 |
| 20260901181554 | 62 | 105 | 0.0 | 0.0 | 0.02 | 0.27 | 0.27 | 97 | 1015.8 |
| 20260901180044 | 62 | 118 | 0.0 | 0.0 | 0.02 | 0.26 | 0.26 | 97 | 1015.8 |
| 20260901174533 | 63 | 119 | 0.0 | 0.0 | 0.02 | 0.26 | 0.26 | 97 | 1015.5 |
| 20260901173008 | 63 | 119 | 0.0 | 0.0 | 0.01 | 0.25 | 0.25 | 97 | 1015.4 |